N91CH KBOI-KALW

Flight info

Callsign N91CH
Flight time N/A
Altitude 32000
Route OLAAH PREIS
Aircraft HDJT/L-SABDGRWY/H

Departure

Time 2026-05-05 01:28
Airport Boise Air Terminal/Gowen Field (KBOI)

Arrival

Time N/A
Airport Walla Walla Regional Airport (KALW)
Time Latitude Longitude Altitude Speed Heading
2026-05-05 01:13 43.56984 -116.22606 2894 ft 0 kts
2026-05-05 01:22 43.56989 -116.22606 2876 ft 3 kts
2026-05-05 01:23 43.57014 -116.22564 2876 ft 8 kts 115°
2026-05-05 01:23 43.56941 -116.22578 2876 ft 16 kts 193°
2026-05-05 01:23 43.56830 -116.22637 2876 ft 15 kts 207°
2026-05-05 01:23 43.56761 -116.22575 2875 ft 16 kts 116°
2026-05-05 01:24 43.56705 -116.22415 2876 ft 21 kts 115°
2026-05-05 01:24 43.56636 -116.22211 2875 ft 26 kts 115°
2026-05-05 01:24 43.56557 -116.21976 2875 ft 28 kts 116°
2026-05-05 01:24 43.56474 -116.21735 2875 ft 28 kts 115°
2026-05-05 01:25 43.56393 -116.21497 2876 ft 27 kts 115°
2026-05-05 01:25 43.56314 -116.21262 2876 ft 27 kts 115°
2026-05-05 01:25 43.56235 -116.21033 2876 ft 26 kts 116°
2026-05-05 01:25 43.56170 -116.20863 2876 ft 11 kts 150°
2026-05-05 01:26 43.56095 -116.20896 2876 ft 14 kts 205°
2026-05-05 01:26 43.55991 -116.20962 2875 ft 17 kts 201°
2026-05-05 01:26 43.55900 -116.20966 2875 ft 12 kts 136°
2026-05-05 01:26 43.55879 -116.20955 2875 ft 2 kts 255°
2026-05-05 01:27 43.55882 -116.20974 2875 ft 6 kts 296°
2026-05-05 01:27 43.56025 -116.21391 2876 ft 86 kts 295°
2026-05-05 01:27 43.56360 -116.22365 2999 ft 126 kts 297°
2026-05-05 01:27 43.56777 -116.23559 3230 ft 152 kts 296°
2026-05-05 01:28 43.57269 -116.24967 3535 ft 173 kts 297°
2026-05-05 01:28 43.57759 -116.26563 3986 ft 192 kts 295°
2026-05-05 01:28 43.58284 -116.28371 4341 ft 207 kts 298°
2026-05-05 01:28 43.59208 -116.29822 4940 ft 206 kts 330°
2026-05-05 01:29 43.60546 -116.30583 5448 ft 215 kts 338°
2026-05-05 01:29 43.61901 -116.31487 6160 ft 216 kts 331°
2026-05-05 01:29 43.63194 -116.32538 6891 ft 216 kts 330°
2026-05-05 01:29 43.64499 -116.33601 7564 ft 220 kts 332°
2026-05-05 01:30 43.65830 -116.34653 8315 ft 221 kts 332°
2026-05-05 01:30 43.67170 -116.35714 9069 ft 224 kts 332°
2026-05-05 01:30 43.68530 -116.36795 9786 ft 227 kts 332°
2026-05-05 01:30 43.69903 -116.37887 10504 ft 229 kts 332°
2026-05-05 01:31 43.71294 -116.38995 11162 ft 234 kts 332°
2026-05-05 01:31 43.72703 -116.40116 11800 ft 239 kts 332°
2026-05-05 01:31 43.74148 -116.41265 12552 ft 240 kts 333°
2026-05-05 01:31 43.75610 -116.42430 13246 ft 245 kts 332°
2026-05-05 01:32 43.77105 -116.43628 13874 ft 250 kts 332°
2026-05-05 01:32 43.78614 -116.44835 14584 ft 251 kts 333°
2026-05-05 01:32 43.80142 -116.46050 15198 ft 256 kts 331°
2026-05-05 01:32 43.81689 -116.47289 15926 ft 255 kts 331°
2026-05-05 01:33 43.83228 -116.48523 16643 ft 257 kts 332°
2026-05-05 01:33 43.84793 -116.49768 17294 ft 262 kts 331°
2026-05-05 01:33 43.86376 -116.51036 18002 ft 263 kts 332°
2026-05-05 01:33 43.87959 -116.52304 18631 ft 265 kts 332°
2026-05-05 01:34 43.89570 -116.53597 19116 ft 270 kts 332°
2026-05-05 01:34 43.91200 -116.54904 19696 ft 270 kts 332°
2026-05-05 01:34 43.92839 -116.56218 20180 ft 276 kts 331°
2026-05-05 01:34 43.94509 -116.57564 20724 ft 278 kts 332°
2026-05-05 01:35 43.96185 -116.58911 21325 ft 280 kts 332°
2026-05-05 01:35 43.97887 -116.60276 21808 ft 284 kts 331°
2026-05-05 01:35 43.99577 -116.61631 22611 ft 277 kts 332°
2026-05-05 01:35 44.01259 -116.62989 23148 ft 284 kts 331°
2026-05-05 01:36 44.02978 -116.64376 23617 ft 287 kts 331°
2026-05-05 01:36 44.04695 -116.65758 24206 ft 286 kts 332°
2026-05-05 01:36 44.06427 -116.67159 24622 ft 290 kts 332°
2026-05-05 01:36 44.08163 -116.68562 25199 ft 289 kts 332°
2026-05-05 01:37 44.09908 -116.69970 25644 ft 292 kts 332°
2026-05-05 01:37 44.11661 -116.71432 26102 ft 294 kts 329°
2026-05-05 01:37 44.13357 -116.73026 26558 ft 296 kts 328°
2026-05-05 01:37 44.15072 -116.74638 26970 ft 299 kts 328°
2026-05-05 01:38 44.16798 -116.76239 27473 ft 298 kts 330°
2026-05-05 01:38 44.18609 -116.77647 27876 ft 299 kts 334°
2026-05-05 01:38 44.20423 -116.79011 28304 ft 301 kts 334°
2026-05-05 01:38 44.22285 -116.80439 28735 ft 302 kts 333°
2026-05-05 01:39 44.24107 -116.81834 29135 ft 303 kts 334°
2026-05-05 01:39 44.25963 -116.83247 29521 ft 305 kts 334°
2026-05-05 01:39 44.27827 -116.84668 29889 ft 306 kts 334°
2026-05-05 01:39 44.29700 -116.86100 30209 ft 307 kts 334°
2026-05-05 01:40 44.31571 -116.87532 30593 ft 306 kts 334°
2026-05-05 01:40 44.33432 -116.88957 30982 ft 304 kts 334°
2026-05-05 01:40 44.35285 -116.90376 31354 ft 303 kts 334°
2026-05-05 01:40 44.37132 -116.91790 31708 ft 303 kts 334°
2026-05-05 01:41 44.40944 -116.94710 31736 ft 322 kts 334°
2026-05-05 01:41 44.44967 -116.97803 31747 ft 337 kts 334°
2026-05-05 01:42 44.49155 -117.01027 31758 ft 349 kts 334°
2026-05-05 01:42 44.53466 -117.04349 31766 ft 357 kts 334°
2026-05-05 01:43 44.57864 -117.07746 31773 ft 364 kts 334°
2026-05-05 01:43 44.62330 -117.11201 31771 ft 369 kts 334°
2026-05-05 01:44 44.66836 -117.14692 31781 ft 371 kts 334°
2026-05-05 01:44 44.71374 -117.18217 31781 ft 374 kts 334°
2026-05-05 01:45 44.75946 -117.21772 31778 ft 376 kts 334°
2026-05-05 01:45 44.80532 -117.25346 31792 ft 377 kts 334°
2026-05-05 01:46 44.85127 -117.28931 31807 ft 378 kts 334°
2026-05-05 01:46 44.89717 -117.32521 31810 ft 377 kts 334°